Weather Roundup
Issued by NWS Springfield, MO

Home | Current Version | Previous Version | Text Only | Print | Product List | Glossary On
Versions: 1 2 3 4 5 6 7 8 9 10 11 12 13 14 15 16 17 18 19 20 21 22 23 24 25 26 27 28 29 30 31 32 33 34 35 36 37 38 39 40 41 42 43 44 45 46 47 48 49 50
000
NZUS99 KSGF 210359
HRRSGF

HOURLY WEATHER
NATIONAL WEATHER SERVICE SPRINGFIELD MO
1100 PM CDT SAT SEP 20 2014

......SGF CWA......

CITY           SKY/WX    TMP DP  RH WIND       PRES   REMARKS
SPRINGFIELD    MOCLDY    71  67  87 SW6       30.02R
JOPLIN         CLOUDY    75  68  78 S7        30.01R
WEST PLAINS    CLEAR     73  66  78 SW5       30.04S
ROLLA          CLEAR     71  67  87 SW8       29.97S
OSAGE BEACH    CLEAR     72  66  83 SW5       29.98S

......SURROUNDING SGF CWA......

CITY           SKY/WX    TMP DP  RH WIND       PRES   REMARKS
CHANUTE        CLOUDY    74  70  87 S5        30.00S
PARSONS        CLOUDY    76  70  82 S3        30.01S
EMPORIA        MOCLDY    70  67  90 SW5       30.01R
GROVE OK       MOCLDY    72  72 100 S6        30.02F
SILOAM SPRINGS PTCLDY    70  63  78 SE3       30.06S
HARRISON AR    CLEAR     68  66  93 S3        30.05S
NEAR YELLVILLE CLEAR     73  64  73 SW3       30.02S

......KANSAS AND MISSOURI......

CITY           SKY/WX    TMP DP  RH WIND       PRES   REMARKS
KANSAS CTY INT CLEAR     70  68  93 W7        29.99R
DOWNTOWN KC    CLEAR     74  69  85 SW6       29.98R
COLUMBIA       CLEAR     74  70  87 SW9       29.95S
SEDALIA        MOCLDY    75  70  84 SW8       29.97R
ST JOSEPH      CLEAR     68  66  93 N5        29.98R
ST LOUIS       PTCLDY    77  67  71 SW7       29.93S
SPIRIT OF STL  CLEAR     70  67  90 W7        29.92S
KIRKSVILLE     CLEAR     72  70  93 SW5       29.93R FOG
WICHITA        MOCLDY    73  68  84 CALM      29.99R
TOPEKA         CLEAR     68  67  96 W3        30.01R FOG
OLATHE         PTCLDY    72  69  90 CALM      30.00R

......TENNESSEE......

CITY           SKY/WX    TMP DP  RH WIND       PRES   REMARKS
MEMPHIS        PTCLDY    75  67  76 S5        30.02R
NASHVILLE      PTCLDY    71  66  84 S3        30.03S

......ARKANSAS.......

CITY           SKY/WX    TMP DP  RH WIND       PRES   REMARKS
FAYETTEVILLE   CLEAR     67  66  97 S3        30.06R
FT SMITH       CLEAR     75  69  81 CALM      30.01R
LITTLE ROCK    CLEAR     75  68  78 CALM      30.02R

......OKLAHOMA.......

CITY           SKY/WX    TMP DP  RH WIND       PRES   REMARKS
TULSA          PTCLDY    76  68  76 SE5       30.02R
PONCA CITY     PTCLDY    76  66  71 S6        29.96F
MCALESTER      CLEAR     72  67  84 CALM      30.03S
OKLAHOMA CITY  CLEAR     72  67  84 S5        30.04R

......IOWA............

CITY           SKY/WX    TMP DP  RH WIND       PRES   REMARKS
DES MOINES     PTCLDY    69  52  54 N16G32    29.97R
QUAD CITIES    CLEAR     71  67  87 SW9       29.79F

......ILLINOIS........

CITY           SKY/WX    TMP DP  RH WIND       PRES   REMARKS
QUINCY         PTCLDY    72  69  90 SW8       29.90R
CHICAGO        PTCLDY    70  66  87 SW7       29.74F



USA.gov is the U.S. government's official web portal to all federal, state and local government web resources and services.